SCP
3 2 2 2 2 2 2 2 2 2 2 2 1 3 2 2 2 1 1 1 1 1 1 1 0 0 0 -0 0 0 0 0 0 0 0 0 1 1 1 1 1 1 1
2 2 3 3 2 1 2 2 2 2 2 2 3 0 0 0 0 0 0 1 1 1 1 1 0 0 0 0 0 0 0 0 0 0 0 0 0 1 1 1 1 0 0
2 1 2 2 1 2 1 2 2 2 2 2 2 1 1 0 0 0 0 0 0 1 1 1 1 1 1 1 0 0 1 1 1 1 0 1 0 1 2 1 1 0 0
0 1 1 1 1 1 1 1 1 2 2 2 2 1 0 0 0 0 0 0 0 0 1 1 1 1 1 1 1 1 1 1 1 1 0 0 0 1 1 1 1 1 0
1 0 0 0 0 1 1 1 1 1 1 2 3 2 1 0 0 0 0 0 -0 -0 1 1 1 1 1 1 1 1 1 1 1 1 0 0 0 1 1 1 1 1 0
0 0 0 0 0 0 1 1 1 1 1 1 1 1 1 1 0 0 0 0 0 -0 0 1 1 1 0 1 1 1 2 1 1 1 1 1 1 1 1 1 1 0 0
0 0 0 0 0 1 1 1 1 1 2 1 1 1 1 1 0 0 0 0 0 0 0 1 2 2 1 1 0 0 1 1 1 1 1 2 1 1 1 1 0 0 0
0 0 0 0 0 0 1 0 1 1 1 1 1 1 1 1 0 0 0 0 1 1 2 2 2 2 1 1 1 1 0 0 0 0 1 2 1 1 1 0 0 1 1
0 0 0 0 0 0 0 0 0 0 0 0 0 0 1 0 0 0 0 1 1 1 2 2 2 2 1 0 1 1 1 1 0 0 0 0 0 0 0 0 0 0 0
0 0 0 0 -0 -0 0 0 0 0 0 0 0 0 0 0 0 0 0 0 0 1 1 1 0 0 0 0 1 1 0 0 0 0 0 0 0 0 0 0 0 0 0
-0 -0 -0 -0 -0 -0 0 0 0 0 0 0 0 0 0 0 0 0 0 0 0 0 0 0 0 0 0 0 0 0 0 0 0 0 0 0 0 0 0 0 0 0 0
-0 -0 0 -0 -0 -0 -0 -0 0 0 0 0 0 0 0 0 0 0 0 0 0 0 0 0 0 0 0 0 0 0 0 0 0 0 0 0 0 0 0 0 0 0 0
-0 0 -0 0 0 0 0 -0 -0 -0 0 -0 -0 -0 0 0 0 0 -0 0 0 0 0 0 0 0 0 0 0 0 0 0 0 0 0 0 0 0 0 0 0 0 0
-0 -0 -0 -0 -0 0 0 0 0 -0 -0 0 -0 0 -0 0 0 0 0 0 0 0 0 0 0 0 0 0 0 0 0 0 0 0 -0 0 0 0 0 0 0 0 0
-0 -0 0 -0 -0 -0 0 0 0 0 -0 -0 -0 0 0 0 0 0 0 0 0 0 0 0 0 0 0 0 0 0 0 0 0 0 0 0 0 0 0 0 0 0 0
0 0 0 0 0 -0 -0 -0 -0 -0 0 0 0 0 0 0 0 0 0 0 0 0 0 -0 0 0 0 0 0 0 0 0 0 0 0 0 0 0 0 0 0 0 0
0 0 0 0 0 0 0 0 0 -0 0 0 0 0 0 0 0 0 0 0 0 0 0 0 0 0 0 0 0 0 0 0 0 0 0 0 0 0 0 0 0 0 0
0 0 0 -0 0 0 0 0 0 0 -0 -0 -0 -0 0 0 0 -0 0 0 0 0 0 0 0 0 0 0 0 0 0 0 0 0 0 0 0 0 0 0 0 0 0
-0 0 -0 0 -0 -0 0 0 0 -0 0 0 0 -0 -0 -0 -0 -0 -0 -0 0 0 0 0 0 0 0 0 0 0 0 0 0 0 0 0 0 0 0 0 0 0 0
0 -0 -0 0 0 0 0 0 0 0 0 0 0 0 -0 0 0 0 -0 -0 -0 0 0 0 0 0 0 0 0 0 0 0 0 0 0 0 0 0 0 0 0 0 0
0 0 0 0 0 0 0 0 -0 -0 0 0 0 0 0 0 0 0 0 0 0 0 0 0 0 0 0 0 0 0 0 0 0 0 0 0 0 0 0 0 0 0 0
0 0 0 0 0 0 0 0 0 0 0 0 0 0 0 0 0 0 0 0 0 0 0 0 0 0 0 0 0 0 0 0 0 0 0 0 0 0 0 0 0 0 0
0 0 -0 0 -0 -0 0 0 0 0 0 0 0 0 0 0 0 0 0 0 0 0 0 0 0 0 0 0 0 0 0 0 0 0 0 0 0 0 0 0 0 0 0
0 0 0 0 0 0 0 0 0 0 0 0 0 0 0 0 0 0 0 0 0 0 0 0 0 0 0 0 0 0 0 0 0 0 0 0 0 0 0 0 0 0 0
0 0 0 0 0 0 0 0 0 0 0 0 0 0 0 0 0 0 0 0 0 0 0 0 0 0 0 0 0 0 0 0 0 0 0 0 0 0 0 0 0 0 0
0 0 0 0 0 0 0 0 0 0 0 0 0 0 0 0 0 0 0 0 0 0 0 0 0 0 0 0 0 0 0 0 0 0 0 0 0 0 0 0 0 0 0
Wind_Speed_500mb
42 45 49 54 51 53 57 64 77 84 95 95 96 72 77 67 57 58 67 75 72 72 70 69 66 59 58 61 66 65 61 57 59 65 59 49 48 46 43 46 49 53 41
50 59 61 67 62 60 62 62 59 73 85 89 96 114 71 44 30 43 57 73 80 76 73 65 71 64 63 59 61 60 54 53 56 60 54 46 44 37 38 40 37 32 31
62 53 50 57 63 73 66 63 63 63 64 83 77 97 67 71 78 93 73 75 82 83 79 69 64 68 70 66 57 63 65 65 63 60 56 45 41 40 39 35 33 28 26
69 66 59 59 62 68 67 62 62 61 63 51 51 27 58 74 84 65 83 97 86 83 86 79 72 66 67 68 64 63 58 56 53 52 47 41 35 38 38 38 36 33 28
45 48 53 55 59 61 67 60 60 60 51 50 43 34 46 42 76 72 64 58 94 106 87 85 72 64 66 67 65 65 61 60 56 52 47 39 37 39 52 47 38 27 31
36 32 33 40 49 56 60 59 53 50 45 39 37 36 34 41 54 47 74 50 62 108 77 84 75 65 66 73 69 53 53 52 56 55 54 45 41 34 40 40 40 36 32
37 32 32 39 40 42 46 44 39 37 33 34 37 36 36 42 42 45 50 56 60 62 68 74 75 73 70 68 66 61 59 56 54 50 56 57 50 52 41 39 37 35 39
37 36 39 39 28 23 25 34 34 31 32 36 35 31 30 31 43 49 49 51 56 58 55 58 64 69 73 70 67 68 66 68 64 60 60 54 48 44 41 35 36 37 41
36 37 34 32 24 9 36 27 31 32 37 36 31 29 29 27 36 39 45 46 49 55 57 58 62 64 66 70 61 60 57 50 59 61 62 58 51 49 43 40 40 39 42
43 42 38 45 60 32 24 23 29 30 31 26 25 24 24 26 28 29 27 26 23 29 34 34 43 52 59 57 55 52 46 48 50 60 55 54 49 45 42 47 45 43 45
40 38 38 46 51 7 22 21 14 16 19 20 21 20 19 16 24 24 26 27 24 20 22 29 35 32 39 41 37 39 39 45 45 46 47 43 42 48 52 51 44 51 48
34 30 28 32 32 29 40 50 42 30 19 22 18 17 11 7 9 12 17 19 22 11 12 15 20 23 23 25 25 27 32 38 37 48 42 47 46 44 43 43 60 44 33
32 30 29 34 29 42 34 31 31 37 34 26 27 32 36 30 26 20 7 11 10 7 16 12 10 12 16 15 15 18 19 35 31 31 33 39 40 38 38 44 46 49 52
30 30 22 21 23 30 27 27 27 39 42 26 23 30 34 27 27 30 29 25 13 4 9 12 14 14 18 15 13 14 13 16 23 31 36 42 41 43 47 51 54 53 62
24 29 31 14 22 26 30 27 24 20 26 27 34 30 25 23 19 19 12 10 8 5 15 17 9 5 7 8 9 5 1 6 9 12 16 18 22 27 32 35 42 43 44
29 22 27 32 26 21 16 22 26 20 18 17 19 20 20 19 17 16 18 19 17 15 15 7 6 5 5 5 2 7 11 8 12 18 21 24 26 27 20 19 22 32 38
19 24 28 27 29 19 22 16 4 13 16 17 15 14 11 9 9 10 14 14 17 11 10 4 3 1 4 4 6 8 7 10 19 26 20 18 17 19 16 24 26 25 28
20 18 23 20 19 23 24 26 24 19 9 15 19 16 20 14 10 13 16 12 3 9 5 5 8 5 8 9 10 10 8 20 22 12 7 12 14 19 21 20 21 20 29
14 12 9 11 16 18 20 23 23 21 15 11 12 12 22 20 18 11 20 18 15 7 6 1 4 3 12 16 15 17 11 12 15 17 17 15 15 19 20 21 21 19 24
10 21 20 16 19 19 16 20 18 16 16 18 22 3 7 16 23 22 6 11 9 7 8 4 10 18 17 16 20 20 12 12 11 15 16 20 16 22 30 31 18 24 23
25 11 18 30 12 15 11 21 11 11 13 14 16 19 10 23 18 15 19 16 10 16 17 18 16 12 19 16 13 13 16 21 23 26 15 22 18 24 29 26 24 24 29
19 18 19 21 23 20 24 19 26 15 19 22 22 21 23 21 19 26 28 23 23 22 19 21 20 13 19 25 22 33 22 16 23 29 32 34 39 31 33 36 34 33 33
18 19 15 15 17 17 19 27 18 25 23 22 19 17 21 19 17 27 27 21 26 14 8 5 8 12 21 18 23 27 27 28 26 33 40 44 45 40 43 40 37 38 38
20 12 15 25 23 20 25 19 23 23 25 23 20 21 21 27 30 30 33 32 23 13 22 13 22 19 24 33 30 35 31 35 35 37 34 36 39 39 34 40 42 43 44
8 13 15 24 24 25 27 27 29 27 27 29 23 23 23 24 28 24 33 37 34 29 21 23 29 28 40 35 35 26 40 37 40 51 53 42 42 42 44 46 45 51 51
17 18 18 19 23 22 23 26 26 27 29 27 30 32 32 28 32 41 35 31 38 41 29 25 24 22 33 46 47 50 46 47 47 46 48 51 53 52 51 48 49 51 50
Wind_Direction_500mb
271 270 277 278 276 273 266 254 248 246 242 236 230 229 221 213 222 235 242 240 237 239 237 238 241 244 243 235 239 246 250 247 253 263 262 254 261 269 268 266 280 283 275
289 273 266 264 266 266 266 265 260 253 248 244 239 234 208 207 231 241 251 246 242 239 238 236 240 244 246 242 242 246 246 253 254 264 266 248 251 262 260 278 285 276 280
282 276 263 259 268 263 263 262 263 260 257 247 248 233 247 251 240 240 247 251 246 242 239 234 235 236 242 244 238 242 243 246 255 258 265 260 246 248 265 263 281 292 290
279 279 274 270 273 268 261 260 262 257 257 261 260 220 212 225 198 222 246 247 247 245 238 237 238 235 237 244 242 242 244 246 248 253 255 251 243 245 246 253 262 276 293
292 281 280 277 272 264 260 258 262 257 250 250 248 233 226 224 218 238 245 241 257 241 238 235 232 233 236 245 247 243 243 243 244 243 248 249 243 245 232 250 265 266 272
303 302 304 293 281 264 258 261 254 247 244 240 231 223 226 224 229 231 218 233 251 252 237 230 228 228 234 240 250 241 246 241 239 239 239 241 229 241 248 255 249 245 258
323 314 314 312 300 269 254 245 234 225 221 221 219 217 215 222 235 238 229 237 230 243 232 228 227 225 228 234 234 238 242 244 245 242 235 237 243 242 250 253 256 247 256
329 320 318 309 302 260 238 237 233 226 223 219 225 218 217 210 215 221 221 225 230 233 235 234 234 232 232 237 235 239 243 243 241 240 240 242 243 243 247 254 262 259 259
353 348 337 334 293 286 236 237 249 240 233 224 221 220 225 217 224 228 230 233 236 238 240 241 241 241 240 236 238 246 241 241 241 244 244 249 242 244 243 252 254 257 262
356 354 343 353 333 240 216 232 261 251 236 221 219 226 225 215 226 228 221 225 240 241 239 240 245 242 241 242 236 232 235 242 242 245 239 242 247 251 255 248 251 254 263
353 357 2 17 359 34 221 225 230 244 205 171 195 201 213 216 222 214 221 218 221 233 236 236 240 245 244 237 229 231 244 246 245 242 237 235 246 251 253 249 252 253 248
360 357 16 24 26 35 46 64 36 47 76 99 102 99 107 152 177 185 191 202 205 231 214 212 215 225 227 215 216 234 245 251 261 250 254 251 254 255 256 247 242 279 249
7 8 22 21 31 36 56 60 48 53 51 62 75 82 81 78 82 74 98 202 214 176 179 181 210 195 192 215 220 233 242 238 244 254 253 253 253 254 256 263 268 274 277
7 358 2 21 33 34 53 53 68 64 78 74 83 85 83 73 73 79 69 67 86 172 203 215 230 232 231 227 221 232 243 254 260 268 270 266 264 263 262 261 266 271 271
8 1 357 3 48 36 46 53 62 58 55 65 81 112 73 88 90 82 90 104 75 70 101 80 77 72 101 91 71 61 91 322 297 294 302 299 286 268 269 267 269 272 270
354 7 11 25 38 33 39 66 73 75 70 56 45 48 57 65 74 71 63 58 61 100 106 110 84 65 49 107 122 193 222 224 240 246 244 258 272 274 284 295 279 276 280
4 20 28 12 23 37 29 15 18 90 91 75 57 37 32 28 35 39 31 41 62 77 101 123 104 114 81 142 152 136 170 242 269 282 275 280 277 291 293 268 265 273 287
357 350 11 22 15 27 27 23 56 30 100 74 37 56 38 18 12 360 3 343 348 14 103 212 207 227 221 235 265 288 238 290 315 309 301 306 310 312 307 289 296 304 288
27 4 31 20 29 33 21 16 23 29 32 0 351 96 59 51 33 38 38 41 102 13 329 357 303 179 270 293 276 272 288 261 278 287 296 299 295 295 293 296 291 294 308
330 38 37 30 27 12 13 15 12 8 5 7 13 15 27 20 3 345 13 38 38 324 323 317 305 268 277 302 322 288 290 336 331 297 322 313 304 283 306 308 321 333 318
39 32 337 343 13 7 20 357 347 344 3 354 349 343 325 327 339 327 317 321 301 278 266 253 256 276 313 312 330 1 315 299 297 290 266 296 272 286 305 324 318 296 304
6 354 346 9 359 359 355 352 343 352 2 2 356 333 330 333 339 326 305 284 288 294 264 259 253 257 255 264 270 292 293 286 287 298 283 284 274 267 280 285 289 294 295
330 339 351 347 332 336 329 330 332 351 346 341 343 344 37 32 6 359 12 34 25 9 339 320 284 257 267 276 275 268 275 290 307 277 267 270 273 276 268 276 282 281 284
359 327 336 339 5 351 2 342 345 344 346 354 349 350 340 350 345 334 327 328 336 0 354 349 348 310 282 279 274 268 260 265 269 274 286 285 285 290 278 281 285 288 285
19 4 345 346 350 345 347 346 343 340 332 336 0 351 341 340 331 331 356 337 327 312 321 333 330 338 324 295 305 282 276 279 276 278 274 271 278 284 290 290 290 291 295
354 4 358 351 349 344 342 336 332 326 346 340 336 334 322 325 325 320 309 322 309 315 328 324 313 314 323 305 304 300 289 288 288 285 278 266 263 269 282 277 276 278 282
Wind_Speed_850mb
42 45 49 54 51 53 57 64 77 84 95 95 96 72 77 67 57 58 67 75 72 72 70 69 66 59 58 61 66 65 61 57 59 65 59 49 48 46 43 46 49 53 41
50 59 61 67 62 60 62 62 59 73 85 89 96 114 71 44 30 43 57 73 80 76 73 65 71 64 63 59 61 60 54 53 56 60 54 46 44 37 38 40 37 32 31
62 53 50 57 63 73 66 63 63 63 64 83 77 97 67 71 78 93 73 75 82 83 79 69 64 68 70 66 57 63 65 65 63 60 56 45 41 40 39 35 33 28 26
69 66 59 59 62 68 67 62 62 61 63 51 51 27 58 74 84 65 83 97 86 83 86 79 72 66 67 68 64 63 58 56 53 52 47 41 35 38 38 38 36 33 28
45 48 53 55 59 61 67 60 60 60 51 50 43 34 46 42 76 72 64 58 94 106 87 85 72 64 66 67 65 65 61 60 56 52 47 39 37 39 52 47 38 27 31
36 32 33 40 49 56 60 59 53 50 45 39 37 36 34 41 54 47 74 50 62 108 77 84 75 65 66 73 69 53 53 52 56 55 54 45 41 34 40 40 40 36 32
37 32 32 39 40 42 46 44 39 37 33 34 37 36 36 42 42 45 50 56 60 62 68 74 75 73 70 68 66 61 59 56 54 50 56 57 50 52 41 39 37 35 39
37 36 39 39 28 23 25 34 34 31 32 36 35 31 30 31 43 49 49 51 56 58 55 58 64 69 73 70 67 68 66 68 64 60 60 54 48 44 41 35 36 37 41
36 37 34 32 24 9 36 27 31 32 37 36 31 29 29 27 36 39 45 46 49 55 57 58 62 64 66 70 61 60 57 50 59 61 62 58 51 49 43 40 40 39 42
43 42 38 45 60 32 24 23 29 30 31 26 25 24 24 26 28 29 27 26 23 29 34 34 43 52 59 57 55 52 46 48 50 60 55 54 49 45 42 47 45 43 45
40 38 38 46 51 7 22 21 14 16 19 20 21 20 19 16 24 24 26 27 24 20 22 29 35 32 39 41 37 39 39 45 45 46 47 43 42 48 52 51 44 51 48
34 30 28 32 32 29 40 50 42 30 19 22 18 17 11 7 9 12 17 19 22 11 12 15 20 23 23 25 25 27 32 38 37 48 42 47 46 44 43 43 60 44 33
32 30 29 34 29 42 34 31 31 37 34 26 27 32 36 30 26 20 7 11 10 7 16 12 10 12 16 15 15 18 19 35 31 31 33 39 40 38 38 44 46 49 52
30 30 22 21 23 30 27 27 27 39 42 26 23 30 34 27 27 30 29 25 13 4 9 12 14 14 18 15 13 14 13 16 23 31 36 42 41 43 47 51 54 53 62
24 29 31 14 22 26 30 27 24 20 26 27 34 30 25 23 19 19 12 10 8 5 15 17 9 5 7 8 9 5 1 6 9 12 16 18 22 27 32 35 42 43 44
29 22 27 32 26 21 16 22 26 20 18 17 19 20 20 19 17 16 18 19 17 15 15 7 6 5 5 5 2 7 11 8 12 18 21 24 26 27 20 19 22 32 38
19 24 28 27 29 19 22 16 4 13 16 17 15 14 11 9 9 10 14 14 17 11 10 4 3 1 4 4 6 8 7 10 19 26 20 18 17 19 16 24 26 25 28
20 18 23 20 19 23 24 26 24 19 9 15 19 16 20 14 10 13 16 12 3 9 5 5 8 5 8 9 10 10 8 20 22 12 7 12 14 19 21 20 21 20 29
14 12 9 11 16 18 20 23 23 21 15 11 12 12 22 20 18 11 20 18 15 7 6 1 4 3 12 16 15 17 11 12 15 17 17 15 15 19 20 21 21 19 24
10 21 20 16 19 19 16 20 18 16 16 18 22 3 7 16 23 22 6 11 9 7 8 4 10 18 17 16 20 20 12 12 11 15 16 20 16 22 30 31 18 24 23
25 11 18 30 12 15 11 21 11 11 13 14 16 19 10 23 18 15 19 16 10 16 17 18 16 12 19 16 13 13 16 21 23 26 15 22 18 24 29 26 24 24 29
19 18 19 21 23 20 24 19 26 15 19 22 22 21 23 21 19 26 28 23 23 22 19 21 20 13 19 25 22 33 22 16 23 29 32 34 39 31 33 36 34 33 33
18 19 15 15 17 17 19 27 18 25 23 22 19 17 21 19 17 27 27 21 26 14 8 5 8 12 21 18 23 27 27 28 26 33 40 44 45 40 43 40 37 38 38
20 12 15 25 23 20 25 19 23 23 25 23 20 21 21 27 30 30 33 32 23 13 22 13 22 19 24 33 30 35 31 35 35 37 34 36 39 39 34 40 42 43 44
8 13 15 24 24 25 27 27 29 27 27 29 23 23 23 24 28 24 33 37 34 29 21 23 29 28 40 35 35 26 40 37 40 51 53 42 42 42 44 46 45 51 51
17 18 18 19 23 22 23 26 26 27 29 27 30 32 32 28 32 41 35 31 38 41 29 25 24 22 33 46 47 50 46 47 47 46 48 51 53 52 51 48 49 51 50
Wind_Direction_850mb
271 270 277 278 276 273 266 254 248 246 242 236 230 229 221 213 222 235 242 240 237 239 237 238 241 244 243 235 239 246 250 247 253 263 262 254 261 269 268 266 280 283 275
289 273 266 264 266 266 266 265 260 253 248 244 239 234 208 207 231 241 251 246 242 239 238 236 240 244 246 242 242 246 246 253 254 264 266 248 251 262 260 278 285 276 280
282 276 263 259 268 263 263 262 263 260 257 247 248 233 247 251 240 240 247 251 246 242 239 234 235 236 242 244 238 242 243 246 255 258 265 260 246 248 265 263 281 292 290
279 279 274 270 273 268 261 260 262 257 257 261 260 220 212 225 198 222 246 247 247 245 238 237 238 235 237 244 242 242 244 246 248 253 255 251 243 245 246 253 262 276 293
292 281 280 277 272 264 260 258 262 257 250 250 248 233 226 224 218 238 245 241 257 241 238 235 232 233 236 245 247 243 243 243 244 243 248 249 243 245 232 250 265 266 272
303 302 304 293 281 264 258 261 254 247 244 240 231 223 226 224 229 231 218 233 251 252 237 230 228 228 234 240 250 241 246 241 239 239 239 241 229 241 248 255 249 245 258
323 314 314 312 300 269 254 245 234 225 221 221 219 217 215 222 235 238 229 237 230 243 232 228 227 225 228 234 234 238 242 244 245 242 235 237 243 242 250 253 256 247 256
329 320 318 309 302 260 238 237 233 226 223 219 225 218 217 210 215 221 221 225 230 233 235 234 234 232 232 237 235 239 243 243 241 240 240 242 243 243 247 254 262 259 259
353 348 337 334 293 286 236 237 249 240 233 224 221 220 225 217 224 228 230 233 236 238 240 241 241 241 240 236 238 246 241 241 241 244 244 249 242 244 243 252 254 257 262
356 354 343 353 333 240 216 232 261 251 236 221 219 226 225 215 226 228 221 225 240 241 239 240 245 242 241 242 236 232 235 242 242 245 239 242 247 251 255 248 251 254 263
353 357 2 17 359 34 221 225 230 244 205 171 195 201 213 216 222 214 221 218 221 233 236 236 240 245 244 237 229 231 244 246 245 242 237 235 246 251 253 249 252 253 248
360 357 16 24 26 35 46 64 36 47 76 99 102 99 107 152 177 185 191 202 205 231 214 212 215 225 227 215 216 234 245 251 261 250 254 251 254 255 256 247 242 279 249
7 8 22 21 31 36 56 60 48 53 51 62 75 82 81 78 82 74 98 202 214 176 179 181 210 195 192 215 220 233 242 238 244 254 253 253 253 254 256 263 268 274 277
7 358 2 21 33 34 53 53 68 64 78 74 83 85 83 73 73 79 69 67 86 172 203 215 230 232 231 227 221 232 243 254 260 268 270 266 264 263 262 261 266 271 271
8 1 357 3 48 36 46 53 62 58 55 65 81 112 73 88 90 82 90 104 75 70 101 80 77 72 101 91 71 61 91 322 297 294 302 299 286 268 269 267 269 272 270
354 7 11 25 38 33 39 66 73 75 70 56 45 48 57 65 74 71 63 58 61 100 106 110 84 65 49 107 122 193 222 224 240 246 244 258 272 274 284 295 279 276 280
4 20 28 12 23 37 29 15 18 90 91 75 57 37 32 28 35 39 31 41 62 77 101 123 104 114 81 142 152 136 170 242 269 282 275 280 277 291 293 268 265 273 287
357 350 11 22 15 27 27 23 56 30 100 74 37 56 38 18 12 360 3 343 348 14 103 212 207 227 221 235 265 288 238 290 315 309 301 306 310 312 307 289 296 304 288
27 4 31 20 29 33 21 16 23 29 32 0 351 96 59 51 33 38 38 41 102 13 329 357 303 179 270 293 276 272 288 261 278 287 296 299 295 295 293 296 291 294 308
330 38 37 30 27 12 13 15 12 8 5 7 13 15 27 20 3 345 13 38 38 324 323 317 305 268 277 302 322 288 290 336 331 297 322 313 304 283 306 308 321 333 318
39 32 337 343 13 7 20 357 347 344 3 354 349 343 325 327 339 327 317 321 301 278 266 253 256 276 313 312 330 1 315 299 297 290 266 296 272 286 305 324 318 296 304
6 354 346 9 359 359 355 352 343 352 2 2 356 333 330 333 339 326 305 284 288 294 264 259 253 257 255 264 270 292 293 286 287 298 283 284 274 267 280 285 289 294 295
330 339 351 347 332 336 329 330 332 351 346 341 343 344 37 32 6 359 12 34 25 9 339 320 284 257 267 276 275 268 275 290 307 277 267 270 273 276 268 276 282 281 284
359 327 336 339 5 351 2 342 345 344 346 354 349 350 340 350 345 334 327 328 336 0 354 349 348 310 282 279 274 268 260 265 269 274 286 285 285 290 278 281 285 288 285
19 4 345 346 350 345 347 346 343 340 332 336 0 351 341 340 331 331 356 337 327 312 321 333 330 338 324 295 305 282 276 279 276 278 274 271 278 284 290 290 290 291 295
354 4 358 351 349 344 342 336 332 326 346 340 336 334 322 325 325 320 309 322 309 315 328 324 313 314 323 305 304 300 289 288 288 285 278 266 263 269 282 277 276 278 282